Вернуться в каталог

USA 255

АктивенВоенныеGEO
NORAD 40101·PAYLOAD·🇺🇸 United States

Запущен Jul 28, 2014 с Cape Canaveral Space Force Station

Loading…

TLE

СвежийSource: Space-Track

Эпоха: Sep 14, 2026, 15:29 UTC

1 40101U 14043C   26257.64552377 -.00000235  00000-0  00000-0 0  9990
2 40101   9.4451  56.3402 0012588 336.2925   1.4822  0.98729626 26188

Отслеживайте USA 255 в реальном времени с AllMySat

Download on the App Store